Find Starlink 35847

NORAD ID: 66621 Int'l Des: 2025-271 Owner: SPXS Country: US Constellation: starlink operational
LEOCIRCULAR

实时位置

正在加载3D地球...

关于 Starlink 35847

正在加载描述...

即将过境

Passes for default location (London). Set your location on the main map for personalized predictions.

高度历史

Loading altitude history...

两行轨道根数

1 66621U 25271E 26104.80737425 .00017452 00000-0 59962-3 0 9990
2 66621 53.1611 332.3629 0000941 86.7419 273.3689 15.30218328 23092
Epoch: Apr 14, 2026 • Age: 6 hours

当前状态

高度 486.1 km
速度 7.62 km/s
星下点 -33.62°S, 76.4°E
发射日期 Nov 23, 2025
运行时间 0.3 years
类型 internet

技术详情

分类 Payload
质量 575.00 kg
干质量 530.00 kg
总质量 575.00 kg
长度 0.30 m
直径 4.10 m
跨度 29.00 m
形状 Box + pan
制造商 SPXS
平台类型 Starlink V2MO
阶段状态 In Orbit
所有者/国家 SPXS/US

Most Searched